RH
96 99 100 96 100 100 100 100 96 94 85 88 80 79 67 60 59 57 52 51 52 51 54 75 80 77 76 69 66 68 61 51 60 60 68 73 71 69 70 72 75 75 76
93 100 100 99 100 100 100 100 96 87 80 76 89 79 83 79 68 57 55 47 47 50 56 57 71 75 75 73 73 70 71 58 62 65 67 68 74 67 59 54 67 67 63
83 100 100 100 100 100 99 99 100 92 85 78 70 76 81 80 76 76 60 48 48 50 55 64 63 70 77 71 72 74 76 66 67 74 80 73 72 74 68 44 42 60 59
73 96 99 100 100 100 100 99 100 98 91 87 82 78 72 73 81 73 65 61 58 57 54 54 59 65 66 76 75 74 71 72 68 88 82 84 80 75 70 66 48 42 44
58 76 99 99 100 97 98 95 99 100 96 96 92 86 80 74 72 82 78 73 68 62 68 63 60 60 68 70 69 68 69 67 69 71 86 85 85 84 75 67 60 36 34
48 55 84 94 98 100 84 88 92 98 100 93 93 92 89 83 78 79 78 77 73 74 52 58 66 67 62 64 72 70 68 66 66 64 84 82 77 78 84 72 67 26 23
38 42 49 77 86 89 94 85 86 85 92 97 91 93 93 95 89 87 82 79 81 81 71 50 50 59 68 64 62 71 71 70 66 67 84 81 73 80 81 80 69 44 35
30 32 37 42 54 68 81 76 73 78 80 82 85 90 93 98 99 93 89 83 82 82 90 68 55 55 58 66 67 63 66 68 68 64 71 76 73 77 83 79 78 66 56
24 25 26 30 33 39 51 68 71 73 75 73 76 76 89 96 98 97 94 96 93 86 85 85 77 57 56 67 72 70 65 67 71 69 60 77 78 78 76 79 80 74 63
17 17 18 19 20 24 31 38 46 59 67 70 73 75 77 80 88 95 98 98 99 92 91 88 85 84 58 54 75 76 72 68 73 77 72 68 78 80 87 80 80 77 75
12 11 11 11 11 12 15 19 23 32 41 50 61 69 75 78 78 82 91 98 97 98 96 92 86 83 80 61 59 78 80 77 73 76 80 72 77 82 81 83 81 79 77
10 10 9 9 8 7 7 7 8 11 17 24 33 40 52 64 75 82 82 85 93 88 92 90 89 85 79 76 76 70 86 88 86 82 82 81 85 81 74 84 84 80 76
13 13 11 10 10 9 8 7 6 6 6 6 9 15 22 32 46 64 78 81 82 82 81 82 86 88 81 80 85 79 86 87 95 97 95 90 95 93 88 82 79 76 79
15 15 14 13 12 11 10 10 9 8 8 7 6 6 6 10 17 29 43 64 76 80 83 80 78 79 84 83 84 92 85 90 87 89 97 99 99 94 88 84 75 70 79
18 17 14 13 12 10 9 9 9 8 8 9 8 8 7 6 6 8 13 24 38 60 78 87 90 83 84 88 82 88 92 90 90 84 92 97 100 98 92 89 77 71 75
19 16 14 12 11 10 10 9 9 8 8 8 8 7 7 7 7 7 6 7 10 19 36 60 87 87 98 98 90 85 83 90 89 79 89 97 99 94 86 85 83 76 72
18 15 13 13 13 12 11 11 11 10 10 10 10 10 9 8 7 6 6 7 7 7 10 19 38 79 98 100 98 98 90 89 91 89 92 87 95 98 94 84 82 81 75
18 16 15 14 13 11 10 10 10 11 11 10 10 10 10 10 10 9 8 7 7 7 8 9 13 25 62 92 98 100 96 93 99 99 93 94 83 100 93 82 77 80 80
18 16 14 13 10 8 7 9 10 10 10 11 11 12 12 13 13 12 10 10 9 8 8 9 10 13 19 46 81 98 100 100 98 98 95 96 98 100 86 80 73 76 78
17 15 13 10 6 4 4 4 5 6 6 9 10 12 13 14 14 14 14 13 12 11 10 10 10 12 18 23 36 71 90 98 95 97 97 98 98 99 79 66 69 68 81
17 14 9 4 3 3 3 3 3 3 4 5 7 10 12 14 14 15 15 15 14 14 14 14 14 12 12 20 23 31 69 91 84 89 88 87 96 99 97 56 69 73 84
15 9 4 3 3 3 3 3 3 3 3 3 4 5 8 11 13 15 16 17 18 17 17 18 19 17 16 25 50 52 74 71 85 98 97 89 90 88 93 65 62 80 97
11 5 3 3 3 4 4 4 4 4 3 3 3 2 3 4 8 14 19 21 22 22 22 23 25 28 27 23 42 75 96 99 98 90 99 97 87 84 80 73 63 77 98
6 4 3 4 5 5 5 5 5 5 5 5 4 4 3 3 3 5 12 22 26 26 26 27 30 32 36 32 33 56 93 100 99 92 75 92 99 85 77 73 73 80 94
5 4 5 6 6 6 7 7 7 7 7 7 6 6 6 4 4 4 6 14 25 30 32 32 32 35 39 42 43 52 64 71 89 99 97 82 99 100 84 72 70 79 97
4 5 6 7 8 8 9 9 10 10 10 10 10 9 8 7 6 4 5 10 24 33 36 36 37 37 42 47 45 52 73 100 90 100 98 93 91 89 99 85 70 71 90
Wind_Speed
20 18 9 13 12 11 16 13 11 11 10 13 13 13 13 13 13 13 13 12 12 12 11 10 10 10 9 8 6 6 6 7 9 9 9 8 8 8 8 7 7 5 6
17 15 7 13 11 11 9 8 8 8 7 8 11 11 12 12 14 13 12 11 10 11 11 9 10 10 10 9 7 6 5 6 7 8 8 7 5 4 4 3 4 4 3
16 14 8 10 9 9 7 8 7 7 5 6 7 8 10 11 11 12 11 12 11 10 9 10 9 9 9 9 8 6 6 4 5 6 7 6 5 2 3 2 1 1 0
16 15 9 9 5 6 8 6 6 6 7 7 7 6 6 8 10 11 11 12 11 10 9 8 8 8 8 7 7 6 5 3 1 3 5 4 2 3 2 2 2 2 3
12 15 13 9 7 5 4 6 7 6 5 6 6 5 5 5 5 8 9 11 11 11 9 8 7 7 7 7 7 6 4 2 1 3 1 2 2 3 4 3 2 3 7
13 15 15 13 11 7 2 4 6 9 9 5 6 6 6 5 5 5 5 6 10 12 11 9 8 7 6 6 7 7 5 3 1 4 5 3 4 5 8 5 4 2 8
12 13 14 11 11 7 6 3 4 6 9 9 8 8 6 5 5 5 5 4 5 9 11 10 9 8 7 6 6 7 7 5 3 5 7 4 5 6 9 8 7 6 8
11 12 11 11 9 8 4 2 4 5 6 7 8 9 10 7 7 6 6 6 6 5 7 9 9 9 8 7 7 7 8 8 5 7 9 7 6 8 11 10 10 9 9
10 9 10 10 9 8 6 5 6 7 7 7 8 8 9 10 10 10 8 7 7 6 6 6 9 9 8 8 8 8 8 9 8 7 9 12 10 11 10 11 11 12 13
8 8 9 9 8 8 8 5 6 6 6 7 9 9 11 9 9 10 10 9 9 7 7 7 7 8 10 9 9 9 9 9 9 9 9 12 13 11 11 12 12 15 15
8 9 9 9 9 9 8 7 7 6 6 6 6 7 9 10 10 9 10 10 10 10 11 8 8 6 6 9 10 10 10 10 10 11 11 12 15 13 13 14 14 15 18
9 11 12 12 12 12 11 10 10 8 8 9 8 8 7 7 7 8 12 11 12 12 13 12 10 8 7 7 8 10 10 12 11 12 13 13 14 16 16 14 16 15 19
13 12 13 14 14 13 13 14 12 13 12 12 11 12 12 12 10 10 10 13 14 17 17 19 14 12 11 11 8 9 12 12 14 12 15 13 14 16 18 16 14 16 19
11 13 14 15 15 15 16 16 16 16 16 16 16 15 15 15 15 15 14 13 15 15 17 19 21 20 15 14 14 12 13 13 15 18 17 18 19 19 18 17 16 16 19
10 12 13 14 15 17 17 18 18 18 19 19 18 19 19 19 19 18 17 17 17 18 19 20 20 22 20 17 15 17 18 17 17 20 21 20 20 21 18 18 19 18 20
9 10 12 14 15 16 16 18 19 19 20 20 20 20 20 20 21 21 21 20 20 20 20 21 21 26 26 24 22 18 19 23 24 23 23 24 24 23 18 18 20 20 22
8 9 11 13 15 16 17 17 18 19 19 19 20 21 21 21 22 22 22 23 23 23 23 23 22 24 23 23 28 28 22 22 25 29 27 26 25 26 23 20 22 23 22
7 10 13 14 15 16 17 17 18 18 18 19 20 21 23 23 23 23 23 24 24 25 26 26 27 26 26 28 30 30 29 28 26 26 29 28 28 30 28 24 24 25 25
6 7 8 9 10 12 13 13 14 14 15 17 19 20 21 22 22 22 24 24 25 25 27 27 27 28 30 30 33 32 29 29 28 29 30 32 32 34 35 30 27 26 28
2 4 7 9 12 13 14 14 14 15 17 19 22 23 25 26 26 26 25 25 25 26 26 27 28 27 28 31 33 35 38 36 35 35 34 33 35 36 37 35 32 30 27
2 5 8 11 11 12 13 13 14 17 19 20 21 23 24 25 25 26 27 28 28 27 28 29 29 30 29 30 33 36 37 36 47 42 42 38 36 36 36 32 32 32 28
3 5 7 8 10 11 13 15 17 18 18 19 20 21 22 23 25 26 27 28 29 28 28 29 30 29 29 29 27 29 22 35 29 38 40 38 40 39 39 36 33 33 29
3 3 5 7 8 10 12 13 12 12 13 14 15 18 20 21 22 23 23 24 26 27 28 29 29 29 29 28 24 16 12 8 30 19 16 34 38 39 37 38 34 33 31
3 1 3 4 6 8 10 12 14 17 18 19 20 22 22 23 24 24 23 24 24 25 26 27 28 28 28 27 30 19 14 21 17 30 25 19 27 38 35 34 35 31 34
5 3 3 3 4 7 9 10 11 12 14 15 16 17 19 21 22 23 24 24 25 25 25 26 27 27 27 27 26 30 28 26 25 25 34 35 27 25 29 28 32 34 38
7 6 4 3 3 5 7 8 9 10 12 13 14 17 19 21 23 24 25 24 25 25 26 26 27 27 28 28 26 28 27 23 27 25 31 44 48 37 28 32 30 34 42
Wind_Direction
6 11 47 69 54 50 35 43 44 46 58 59 46 44 44 43 41 38 35 31 28 29 28 29 32 36 37 50 48 43 38 46 49 67 76 92 97 97 91 92 95 93 83
1 17 43 66 59 51 42 44 45 37 53 61 66 54 46 47 37 32 38 39 32 28 27 23 23 26 26 33 43 44 44 52 52 64 84 96 87 73 80 79 101 98 106
6 27 55 71 66 65 54 48 46 39 43 49 52 62 62 49 47 38 33 31 31 33 31 27 15 21 20 20 31 36 37 50 63 70 77 88 91 70 26 45 61 192 220
9 28 50 82 78 59 54 41 35 40 38 39 45 50 43 53 45 31 32 35 27 25 22 21 16 7 6 10 10 29 36 47 69 83 73 45 36 30 332 4 329 244 227
21 35 48 79 96 81 50 30 23 16 33 40 33 31 23 28 33 49 32 32 23 20 19 17 10 5 357 354 353 349 6 36 113 202 104 353 327 329 318 283 297 258 206
39 39 40 49 66 72 39 352 16 19 11 20 18 13 14 356 2 13 31 44 20 19 20 11 5 357 353 343 335 331 327 332 266 195 190 220 309 311 305 292 273 207 187
47 49 48 40 45 51 58 56 339 355 8 7 356 354 353 356 334 333 340 350 29 9 360 5 359 350 341 330 314 314 313 299 261 225 213 238 252 285 300 294 258 217 195
54 50 45 51 50 27 32 313 320 328 322 335 343 353 337 336 330 308 305 314 326 354 1 354 355 348 339 325 311 298 296 292 274 241 237 242 254 261 284 286 257 230 220
52 51 49 48 43 38 29 8 288 288 300 305 300 311 336 348 336 312 298 298 302 306 322 343 340 336 332 324 313 296 284 282 281 264 245 239 233 256 274 286 257 236 226
52 47 42 38 36 33 31 5 334 294 295 295 295 296 297 296 314 314 309 292 299 289 297 308 316 326 321 311 306 297 283 271 269 267 254 239 241 248 267 272 262 237 230
54 47 42 38 33 26 24 16 8 352 339 316 301 285 280 275 268 278 302 300 284 294 286 287 296 300 307 307 294 296 291 282 266 258 254 246 243 244 258 270 257 242 230
61 52 45 43 39 33 31 26 16 359 342 338 339 331 326 318 298 278 267 272 276 269 276 276 281 284 285 292 295 296 294 289 284 262 253 256 263 257 259 257 258 247 232
60 58 54 48 41 35 32 29 23 18 13 3 345 333 335 329 320 300 280 269 267 264 268 274 270 279 288 284 278 291 290 296 283 277 263 260 262 259 258 258 254 245 232
67 59 52 48 41 35 31 25 21 17 15 10 5 357 346 331 323 318 316 305 285 280 272 270 272 280 286 282 268 266 272 278 274 273 269 265 259 262 257 256 254 245 235
67 57 49 46 39 33 27 24 19 16 13 10 4 359 353 349 346 340 327 317 312 301 288 281 275 270 266 266 265 258 258 263 266 267 267 268 263 257 253 254 252 247 238
64 56 48 42 36 30 25 20 15 12 11 6 2 360 355 351 345 339 335 332 326 313 309 298 291 273 269 267 262 266 264 256 258 257 263 265 263 265 258 257 249 247 242
61 51 41 34 28 20 18 15 12 10 6 2 1 358 355 351 347 341 336 331 329 328 318 303 300 287 278 274 265 264 266 269 262 258 257 257 266 262 261 259 253 246 242
54 40 31 23 15 10 6 3 2 1 357 354 352 350 348 347 346 344 339 334 330 327 323 320 308 303 290 280 270 263 260 260 268 268 261 257 259 259 259 260 258 250 245
47 31 17 7 358 357 358 360 356 355 354 353 352 350 349 348 345 341 338 336 333 327 323 320 319 312 303 291 282 267 266 253 258 261 261 259 258 256 258 258 256 254 247
30 358 350 349 351 352 356 354 356 356 357 357 354 352 348 345 343 342 340 337 333 330 325 320 319 316 318 306 296 282 271 261 253 254 260 264 263 262 258 257 254 252 248
292 336 346 349 349 350 347 349 354 0 357 352 351 348 344 340 338 336 335 334 334 333 330 327 322 318 315 319 310 286 274 280 263 260 263 264 262 260 262 252 248 252 246
273 330 340 346 351 353 359 359 358 358 356 351 346 341 338 335 334 333 333 333 332 330 328 327 326 323 318 325 331 330 320 292 273 260 262 257 259 264 263 258 246 248 240
266 326 346 355 0 4 5 5 359 354 352 349 349 346 343 340 337 335 334 332 330 330 328 328 327 327 324 318 325 330 329 300 303 289 296 258 259 264 262 259 245 242 238
214 268 336 352 359 360 1 358 354 357 357 358 354 351 349 344 340 336 334 334 332 329 326 325 325 324 323 319 315 313 286 279 302 307 269 277 276 259 260 256 244 240 232
204 227 265 307 346 353 354 356 358 357 358 357 355 352 350 349 347 342 338 334 331 329 327 325 322 321 320 318 313 311 306 298 294 289 288 293 288 277 261 258 252 236 226
206 221 247 288 331 339 343 343 347 352 352 354 354 354 353 353 352 349 344 339 334 330 326 323 321 319 318 315 313 307 305 298 289 287 288 284 289 284 292 258 260 242 222